Location: Paddlesworth
(51.1000°N, 1.1333°E)
Time: 18:55:06
(UTC+00:00)

ERBS - Pass Details

Date: 11 May 2021
Orbit: 399 x 417 km, 57.0° (Epoch: 20 June)

Event Time Altitude Azimuth Distance (km) Brightness Sun altitude
Rises 23:12:54 0° 299° (WNW) 2,357 6.6 -20.2°
Reaches altitude 10° 23:15:00 10° 295° (WNW) 1,495 5.5 -20.3°
Enters shadow 23:17:24 39° 268° (W) 645 3.2 -20.4°
